Starlink 11514

operational
NORAD ID: 62514 Int'l Des: 2025-004 Owner: SPXS Country: US Constellation: starlink
LEOCIRCULAR

Über Starlink 11514

Beschreibung wird geladen...

Live-Position

3D-Globus wird geladen...

Nächste Überflüge

Höhenverlauf

Altitude vs Time

uPlot chart will show altitude changes over time

Zweizeiliger Elementsatz

1 62514U 25004D 25353.28320029 .00179691 00000-0 13729-2 0 9990
2 62514 42.9989 195.3081 0001267 269.3504 90.7219 15.70856101 54565
Epoch: 19. Dez. 2025 • Age: 14 hours

Aktueller Status

Höhe 355.1 km
Geschwindigkeit 7.70 km/s
Subsatellitenpunkt 10.47°N, 46.8°W
Startdatum 8. Jan. 2025
Alter 0.9 years
Typ internet

Technische Details

Klassifizierung Payload
Masse 960.00 kg
Trockenmasse 910.00 kg
Gesamtmasse 960.00 kg
Länge 0.30 m
Durchmesser 4.10 m
Spannweite 29.00 m
Form Box + pan
Hersteller SPXS
Bus-Typ Starlink V2MD
Phasenstatus In Orbit
Besitzer/Staat SPXS/US

Große Konstellationen

Loading constellations...